Location: Kott?ru
(16.6209°N, 80.6208°E)
Time: 16:40:38
(UTC+00:00)

X-37B - Visible Passes

Search period start: 16 May 2021 00:00
Search period end: 26 May 2021 00:00
Orbit: 386 x 389 km, 45.0° (Epoch: 08 May)

Date Brightness Start Highest point End Pass type
(mag) Time Alt. Az. Time Alt. Az. Time Alt. Az.
17 May 3.4 14:29:44 10° NNE 14:29:48 10° NNE 14:29:48 10° NNE visible
18 May 3.5 15:05:35 10° NW 15:06:27 17° NW 15:06:27 17° NW visible
19 May 2.1 14:07:43 10° NNW 14:10:20 23° NE 14:10:53 22° ENE visible
20 May 2.2 14:45:31 10° WNW 14:47:42 33° W 14:47:42 33° W visible
21 May 0.7 13:47:03 10° NW 13:50:12 64° NE 13:52:16 19° ESE visible
22 May 3.0 14:26:18 10° W 14:28:16 15° SW 14:29:14 14° SSW visible
23 May 1.7 13:27:00 10° WNW 13:30:00 40° SW 13:32:59 10° SSE visible
